| time (UTC) | temp C | wind direction | speed KPH | gust KPH | rain 1hr cm | rain 24hr cm | rain mn cm | humidity % | barometer mb |
| 20260510153509 | 13 | 15 | 1.6 | 8.0 | 0.00 | 0.38 | 0.00 | 56 | 1017.2 |
| 20260510153036 | 13 | 49 | 1.6 | 6.4 | 0.00 | 0.38 | 0.00 | 52 | 1017.2 |
| 20260510152511 | 12 | 10 | 3.2 | 6.4 | 0.00 | 0.38 | 0.00 | 54 | 1017.2 |
| 20260510152015 | 12 | 42 | 1.6 | 6.4 | 0.00 | 0.38 | 0.00 | 55 | 1017.3 |
| 20260510151528 | 12 | 9 | 3.2 | 14.5 | 0.00 | 0.38 | 0.00 | 54 | 1017.1 |
| 20260510151012 | 12 | 352 | 4.8 | 14.5 | 0.00 | 0.38 | 0.00 | 53 | 1017.1 |
| 20260510150509 | 12 | 360 | 6.4 | 14.5 | 0.00 | 0.38 | 0.00 | 54 | 1017.0 |
| 20260510150024 | 12 | 11 | 3.2 | 8.0 | 0.00 | 0.38 | 0.00 | 57 | 1016.7 |
| 20260510145510 | 12 | 352 | 3.2 | 8.0 | 0.00 | 0.38 | 0.00 | 56 | 1016.7 |
| 20260510145009 | 12 | 42 | 3.2 | 8.0 | 0.00 | 0.38 | 0.00 | 58 | 1016.7 |
| 20260510144525 | 12 | 360 | 3.2 | 8.0 | 0.00 | 0.38 | 0.00 | 59 | 1016.7 |
| 20260510144009 | 12 | 64 | 3.2 | 8.0 | 0.00 | 0.38 | 0.00 | 62 | 1016.6 |
| 20260510143510 | 11 | 352 | 3.2 | 12.9 | 0.00 | 0.38 | 0.00 | 62 | 1016.6 |
| 20260510143024 | 11 | 36 | 4.8 | 9.7 | 0.00 | 0.38 | 0.00 | 61 | 1016.6 |
| 20260510142510 | 11 | 13 | 3.2 | 8.0 | 0.00 | 0.38 | 0.00 | 66 | 1016.5 |
| 20260510142012 | 11 | 32 | 1.6 | 9.7 | 0.00 | 0.38 | 0.00 | 64 | 1016.5 |
| 20260510141527 | 11 | 14 | 4.8 | 9.7 | 0.00 | 0.38 | 0.00 | 66 | 1016.5 |
| 20260510141010 | 11 | 5 | 4.8 | 9.7 | 0.00 | 0.38 | 0.00 | 70 | 1016.5 |
| 20260510140508 | 10 | 360 | 3.2 | 8.0 | 0.00 | 0.38 | 0.00 | 72 | 1016.5 |
| 20260510140022 | 10 | 360 | 3.2 | 11.3 | 0.00 | 0.38 | 0.00 | 72 | 1016.5 |
| 20260510135507 | 10 | 5 | 6.4 | 14.5 | 0.00 | 0.38 | 0.00 | 70 | 1016.4 |
| 20260510135009 | 10 | 360 | 4.8 | 14.5 | 0.00 | 0.38 | 0.00 | 74 | 1016.4 |
| 20260510134524 | 10 | 5 | 4.8 | 12.9 | 0.00 | 0.38 | 0.00 | 75 | 1016.4 |
| 20260510134015 | 10 | 360 | 4.8 | 12.9 | 0.00 | 0.38 | 0.00 | 78 | 1016.4 |
| 20260510133505 | 10 | 12 | 4.8 | 8.0 | 0.00 | 0.38 | 0.00 | 79 | 1016.3 |
| 20260510133005 | 9 | 42 | 1.6 | 4.8 | 0.00 | 0.38 | 0.00 | 81 | 1016.2 |
| 20260510132504 | 9 | 360 | 1.6 | 6.4 | 0.00 | 0.38 | 0.00 | 81 | 1016.1 |
| 20260510132010 | 9 | 5 | 1.6 | 11.3 | 0.00 | 0.38 | 0.00 | 82 | 1016.0 |
| 20260510131512 | 9 | 5 | 3.2 | 11.3 | 0.00 | 0.38 | 0.00 | 82 | 1015.8 |
| 20260510131011 | 9 | 352 | 1.6 | 6.4 | 0.00 | 0.38 | 0.00 | 83 | 1015.9 |
| 20260510130508 | 9 | 22 | 3.2 | 6.4 | 0.00 | 0.38 | 0.00 | 84 | 1015.8 |
| 20260510130018 | 8 | 352 | 3.2 | 6.4 | 0.00 | 0.38 | 0.00 | 84 | 1015.7 |
| 20260510125509 | 8 | 5 | 3.2 | 6.4 | 0.00 | 0.38 | 0.00 | 85 | 1015.6 |
| 20260510125013 | 8 | 352 | 3.2 | 9.7 | 0.00 | 0.38 | 0.00 | 85 | 1015.6 |
| 20260510124521 | 8 | 32 | 3.2 | 9.7 | 0.00 | 0.38 | 0.00 | 85 | 1015.4 |
| 20260510124008 | 8 | 360 | 1.6 | 6.4 | 0.00 | 0.38 | 0.00 | 85 | 1015.3 |
| 20260510123511 | 8 | 360 | 4.8 | 6.4 | 0.00 | 0.38 | 0.00 | 85 | 1015.3 |
| 20260510123025 | 8 | 5 | 1.6 | 9.7 | 0.00 | 0.38 | 0.00 | 86 | 1015.2 |
| 20260510122509 | 8 | 352 | 4.8 | 9.7 | 0.00 | 0.38 | 0.00 | 86 | 1015.1 |
| 20260510122007 | 8 | 360 | 1.6 | 6.4 | 0.00 | 0.38 | 0.00 | 87 | 1015.0 |
| 20260510121510 | 8 | 5 | 1.6 | 4.8 | 0.00 | 0.38 | 0.00 | 88 | 1014.8 |
| 20260510121009 | 8 | 12 | 0.0 | 3.2 | 0.00 | 0.38 | 0.00 | 88 | 1014.9 |
| 20260510120504 | 8 | 12 | 0.0 | 3.2 | 0.00 | 0.38 | 0.00 | 88 | 1014.7 |
| 20260510120012 | 8 | 12 | 0.0 | 0.0 | 0.00 | 0.38 | 0.00 | 88 | 1014.5 |
| 20260510115508 | 8 | 12 | 0.0 | 0.0 | 0.00 | 0.38 | 0.00 | 88 | 1014.5 |
| 20260510115008 | 8 | 12 | 0.0 | 0.0 | 0.00 | 0.38 | 0.00 | 88 | 1014.6 |
| 20260510114523 | 8 | 12 | 0.0 | 0.0 | 0.00 | 0.38 | 0.00 | 88 | 1014.4 |
| 20260510114008 | 8 | 12 | 0.0 | 0.0 | 0.00 | 0.38 | 0.00 | 88 | 1014.2 |
| 20260510113507 | 8 | 12 | 0.0 | 1.6 | 0.00 | 0.38 | 0.00 | 89 | 1014.0 |
| 20260510113034 | 8 | 12 | 0.0 | 1.6 | 0.00 | 0.38 | 0.00 | 88 | 1013.8 |
| 20260510112511 | 8 | 12 | 0.0 | 0.0 | 0.00 | 0.38 | 0.00 | 88 | 1013.7 |
| 20260510112009 | 8 | 12 | 0.0 | 0.0 | 0.00 | 0.38 | 0.00 | 88 | 1013.7 |
| 20260510111523 | 8 | 12 | 0.0 | 0.0 | 0.00 | 0.38 | 0.00 | 88 | 1013.7 |
| 20260510111014 | 8 | 12 | 0.0 | 0.0 | 0.00 | 0.38 | 0.00 | 88 | 1013.7 |
| 20260510110510 | 8 | 12 | 0.0 | 0.0 | 0.00 | 0.38 | 0.00 | 89 | 1013.5 |
| 20260510110017 | 8 | 12 | 0.0 | 0.0 | 0.00 | 0.38 | 0.00 | 88 | 1013.2 |
| 20260510105504 | 8 | 12 | 0.0 | 0.0 | 0.00 | 0.38 | 0.00 | 89 | 1013.2 |
| 20260510105009 | 8 | 12 | 0.0 | 0.0 | 0.00 | 0.38 | 0.00 | 89 | 1013.2 |
| 20260510104513 | 7 | 12 | 0.0 | 0.0 | 0.00 | 0.38 | 0.00 | 89 | 1012.9 |
| 20260510104010 | 7 | 12 | 0.0 | 0.0 | 0.00 | 0.38 | 0.00 | 88 | 1013.1 |
| 20260510103508 | 7 | 12 | 0.0 | 0.0 | 0.00 | 0.38 | 0.00 | 88 | 1012.9 |
| 20260510103020 | 7 | 12 | 0.0 | 0.0 | 0.00 | 0.38 | 0.00 | 88 | 1012.8 |
| 20260510102507 | 7 | 12 | 0.0 | 0.0 | 0.00 | 0.38 | 0.00 | 88 | 1012.6 |
| 20260510102011 | 7 | 12 | 0.0 | 0.0 | 0.00 | 0.38 | 0.00 | 88 | 1012.0 |
| 20260510101522 | 7 | 12 | 0.0 | 0.0 | 0.00 | 0.38 | 0.00 | 88 | 1012.3 |
| 20260510101011 | 7 | 12 | 0.0 | 0.0 | 0.00 | 0.38 | 0.00 | 87 | 1012.3 |
| 20260510100510 | 7 | 12 | 0.0 | 0.0 | 0.00 | 0.38 | 0.00 | 87 | 1012.2 |
| 20260510100034 | 7 | 12 | 0.0 | 0.0 | 0.00 | 0.38 | 0.00 | 87 | 1012.4 |
| 20260510095508 | 7 | 12 | 0.0 | 0.0 | 0.00 | 0.38 | 0.00 | 87 | 1012.4 |
| 20260510095010 | 7 | 12 | 0.0 | 0.0 | 0.00 | 0.38 | 0.00 | 86 | 1012.2 |
| 20260510094518 | 7 | 12 | 0.0 | 0.0 | 0.00 | 0.38 | 0.00 | 86 | 1012.3 |
| 20260510093022 | 8 | 12 | 0.0 | 0.0 | 0.00 | 0.38 | 0.00 | 86 | 1012.0 |
| 20260510092510 | 8 | 12 | 0.0 | 0.0 | 0.00 | 0.38 | 0.00 | 86 | 1012.0 |
| 20260510092010 | 8 | 12 | 0.0 | 0.0 | 0.00 | 0.38 | 0.00 | 86 | 1011.9 |
| 20260510091521 | 8 | 12 | 0.0 | 0.0 | 0.00 | 0.38 | 0.00 | 85 | 1011.8 |
| 20260510091007 | 8 | 12 | 0.0 | 0.0 | 0.00 | 0.38 | 0.00 | 84 | 1011.8 |
| 20260510090511 | 8 | 12 | 0.0 | 0.0 | 0.00 | 0.38 | 0.00 | 84 | 1011.4 |
| 20260510090024 | 8 | 12 | 0.0 | 0.0 | 0.00 | 0.38 | 0.00 | 84 | 1011.3 |
| 20260510085509 | 8 | 12 | 0.0 | 0.0 | 0.00 | 0.38 | 0.00 | 84 | 1011.3 |
| 20260510085008 | 8 | 12 | 0.0 | 0.0 | 0.00 | 0.38 | 0.00 | 83 | 1011.3 |
| 20260510084532 | 8 | 12 | 0.0 | 0.0 | 0.00 | 0.41 | 0.00 | 83 | 1011.1 |
| 20260510084010 | 9 | 12 | 0.0 | 0.0 | 0.00 | 0.41 | 0.00 | 84 | 1010.9 |
| 20260510083515 | 9 | 12 | 0.0 | 1.6 | 0.00 | 0.41 | 0.00 | 84 | 1010.8 |
| 20260510083018 | 9 | 12 | 0.0 | 3.2 | 0.00 | 0.41 | 0.00 | 84 | 1010.8 |
| 20260510082507 | 9 | 12 | 0.0 | 4.8 | 0.00 | 0.41 | 0.00 | 84 | 1010.6 |
| 20260510081529 | 10 | 5 | 1.6 | 4.8 | 0.00 | 0.41 | 0.00 | 84 | 1010.6 |
| 20260510080514 | 10 | 11 | 1.6 | 8.0 | 0.00 | 0.41 | 0.00 | 85 | 1010.7 |
| 20260510080038 | 10 | 22 | 3.2 | 9.7 | 0.00 | 0.41 | 0.00 | 85 | 1010.5 |
| 20260510075507 | 10 | 352 | 3.2 | 9.7 | 0.00 | 0.41 | 0.00 | 86 | 1010.5 |
| 20260510075010 | 10 | 343 | 3.2 | 9.7 | 0.00 | 0.41 | 0.00 | 88 | 1010.4 |
| 20260510074527 | 11 | 5 | 3.2 | 6.4 | 0.00 | 0.41 | 0.00 | 88 | 1010.3 |
| 20260510074009 | 11 | 360 | 3.2 | 6.4 | 0.00 | 0.41 | 0.00 | 89 | 1010.2 |
| 20260510073509 | 11 | 10 | 1.6 | 6.4 | 0.00 | 0.41 | 0.00 | 90 | 1010.2 |
| 20260510073038 | 11 | 360 | 1.6 | 4.8 | 0.00 | 0.41 | 0.00 | 92 | 1010.1 |
| 20260510072509 | 11 | 352 | 0.0 | 6.4 | 0.00 | 0.43 | 0.00 | 92 | 1010.1 |
| 20260510072011 | 11 | 352 | 1.6 | 6.4 | 0.00 | 0.43 | 0.00 | 92 | 1010.1 |
| 20260510071519 | 11 | 5 | 0.0 | 1.6 | 0.00 | 0.46 | 0.00 | 91 | 1010.0 |
| 20260510071008 | 11 | 202 | 0.0 | 0.0 | 0.00 | 0.48 | 0.00 | 91 | 1010.0 |
| 20260510070507 | 11 | 202 | 0.0 | 0.0 | 0.00 | 0.48 | 0.00 | 91 | 1009.9 |
| 20260510070022 | 11 | 202 | 0.0 | 0.0 | 0.00 | 0.53 | 0.00 | 91 | 1009.7 |
| 20260510065510 | 11 | 202 | 0.0 | 0.0 | 0.00 | 0.56 | 0.00 | 91 | 1009.6 |
| 20260510065012 | 11 | 202 | 0.0 | 0.0 | 0.00 | 0.58 | 0.00 | 91 | 1009.6 |
| 20260510064524 | 11 | 202 | 0.0 | 0.0 | 0.00 | 0.61 | 0.00 | 91 | 1009.5 |
| 20260510064007 | 12 | 202 | 0.0 | 0.0 | 0.00 | 0.64 | 0.00 | 91 | 1009.4 |
| 20260510063508 | 12 | 202 | 0.0 | 0.0 | 0.00 | 0.64 | 0.00 | 91 | 1009.3 |
| 20260510063035 | 12 | 202 | 0.0 | 0.0 | 0.00 | 0.66 | 0.00 | 91 | 1009.2 |
| 20260510062512 | 12 | 202 | 0.0 | 0.0 | 0.00 | 0.66 | 0.00 | 91 | 1009.3 |
| 20260510062009 | 12 | 202 | 0.0 | 0.0 | 0.00 | 0.66 | 0.00 | 91 | 1009.2 |
| 20260510061526 | 12 | 202 | 0.0 | 0.0 | 0.00 | 0.66 | 0.00 | 91 | 1009.1 |
| 20260510061011 | 12 | 202 | 0.0 | 0.0 | 0.00 | 0.69 | 0.00 | 90 | 1009.0 |
| 20260510060510 | 12 | 202 | 0.0 | 0.0 | 0.00 | 0.69 | 0.00 | 90 | 1009.0 |
| 20260510060034 | 12 | 202 | 0.0 | 0.0 | 0.00 | 0.71 | 0.00 | 90 | 1008.8 |
| 20260510055508 | 12 | 202 | 0.0 | 0.0 | 0.00 | 0.74 | 0.00 | 90 | 1008.7 |
| 20260510055011 | 12 | 202 | 0.0 | 0.0 | 0.00 | 0.76 | 0.00 | 90 | 1008.7 |
| 20260510054523 | 12 | 202 | 0.0 | 0.0 | 0.00 | 0.79 | 0.00 | 89 | 1008.8 |
| 20260510054013 | 12 | 202 | 0.0 | 3.2 | 0.00 | 0.81 | 0.00 | 89 | 1008.6 |
| 20260510053511 | 12 | 202 | 0.0 | 3.2 | 0.00 | 0.84 | 0.00 | 90 | 1008.6 |
| 20260510053024 | 12 | 195 | 0.0 | 3.2 | 0.00 | 0.84 | 0.00 | 90 | 1008.5 |
| 20260510052511 | 12 | 195 | 1.6 | 3.2 | 0.00 | 0.86 | 0.00 | 90 | 1008.5 |
| 20260510052010 | 12 | 195 | 1.6 | 3.2 | 0.00 | 0.86 | 0.00 | 91 | 1008.5 |
| 20260510051527 | 12 | 188 | 1.6 | 4.8 | 0.00 | 0.86 | 0.00 | 91 | 1008.4 |
| 20260510051006 | 12 | 190 | 1.6 | 4.8 | 0.00 | 0.86 | 0.00 | 92 | 1008.4 |
| 20260510050508 | 12 | 192 | 1.6 | 4.8 | 0.00 | 0.86 | 0.00 | 92 | 1008.5 |
| 20260510050015 | 11 | 195 | 3.2 | 4.8 | 0.00 | 0.89 | 0.00 | 93 | 1008.5 |
| 20260510045503 | 11 | 189 | 1.6 | 4.8 | 0.00 | 0.91 | 0.00 | 93 | 1008.6 |
| 20260510045003 | 11 | 182 | 1.6 | 3.2 | 0.00 | 0.91 | 0.00 | 93 | 1008.6 |
| 20260510044504 | 11 | 182 | 0.0 | 3.2 | 0.00 | 0.94 | 0.00 | 93 | 1008.3 |
| 20260510044004 | 11 | 182 | 0.0 | 3.2 | 0.00 | 0.94 | 0.00 | 93 | 1008.3 |
| 20260510043506 | 11 | 182 | 0.0 | 3.2 | 0.00 | 0.94 | 0.00 | 93 | 1008.2 |
| 20260510043008 | 11 | 182 | 0.0 | 3.2 | 0.00 | 0.94 | 0.00 | 93 | 1008.2 |
| 20260510042502 | 11 | 182 | 0.0 | 3.2 | 0.00 | 0.97 | 0.00 | 92 | 1008.2 |
| 20260510042003 | 11 | 182 | 0.0 | 3.2 | 0.00 | 0.99 | 0.00 | 92 | 1008.2 |
| 20260510041512 | 11 | 182 | 0.0 | 3.2 | 0.00 | 0.99 | 0.00 | 91 | 1008.2 |
| 20260510041004 | 11 | 182 | 0.0 | 3.2 | 0.00 | 1.02 | 0.00 | 91 | 1008.2 |
| 20260510040509 | 12 | 182 | 0.0 | 3.2 | 0.00 | 1.02 | 0.00 | 91 | 1008.3 |
| 20260510040018 | 12 | 182 | 0.0 | 3.2 | 0.00 | 1.02 | 0.00 | 91 | 1008.2 |
| 20260510035507 | 12 | 182 | 0.0 | 3.2 | 0.00 | 1.04 | 1.02 | 91 | 1008.4 |
| 20260510035012 | 12 | 182 | 0.0 | 3.2 | 0.00 | 1.04 | 1.02 | 91 | 1008.2 |
| 20260510034519 | 12 | 182 | 1.6 | 3.2 | 0.00 | 1.04 | 1.02 | 91 | 1008.2 |
| 20260510034006 | 12 | 180 | 1.6 | 3.2 | 0.00 | 1.07 | 1.02 | 91 | 1008.0 |
| 20260510033504 | 12 | 180 | 1.6 | 3.2 | 0.00 | 1.07 | 1.02 | 90 | 1008.0 |
| 20260510033003 | 12 | 180 | 0.0 | 3.2 | 0.00 | 1.07 | 1.02 | 90 | 1008.0 |
| 20260510032503 | 12 | 180 | 1.6 | 3.2 | 0.00 | 1.07 | 1.02 | 90 | 1008.0 |
| 20260510032007 | 12 | 180 | 0.0 | 3.2 | 0.00 | 1.07 | 1.02 | 91 | 1008.0 |
| 20260510031509 | 12 | 180 | 0.0 | 3.2 | 0.00 | 1.07 | 1.02 | 91 | 1008.1 |
| 20260510031006 | 12 | 180 | 1.6 | 3.2 | 0.00 | 1.07 | 1.02 | 90 | 1008.0 |
| 20260510030505 | 12 | 198 | 0.0 | 0.0 | 0.00 | 1.09 | 1.02 | 90 | 1008.5 |
| 20260510030014 | 12 | 198 | 0.0 | 0.0 | 0.00 | 1.09 | 1.02 | 91 | 1008.2 |
| 20260510025511 | 12 | 198 | 0.0 | 3.2 | 0.00 | 1.09 | 1.02 | 91 | 1008.2 |
| 20260510025008 | 12 | 198 | 0.0 | 3.2 | 0.00 | 1.09 | 1.02 | 91 | 1008.2 |
| 20260510024521 | 12 | 198 | 1.6 | 4.8 | 0.00 | 1.09 | 1.02 | 91 | 1008.1 |
| 20260510024010 | 12 | 178 | 1.6 | 6.4 | 0.00 | 1.09 | 1.02 | 92 | 1008.1 |
| 20260510023506 | 12 | 178 | 3.2 | 6.4 | 0.00 | 1.09 | 1.02 | 92 | 1008.4 |
| 20260510023022 | 12 | 190 | 1.6 | 4.8 | 0.00 | 1.09 | 1.02 | 92 | 1008.3 |
| 20260510022503 | 12 | 183 | 1.6 | 3.2 | 0.00 | 1.09 | 1.02 | 92 | 1008.1 |
| 20260510022002 | 12 | 194 | 0.0 | 0.0 | 0.00 | 1.09 | 1.02 | 91 | 1008.1 |
| 20260510021519 | 12 | 194 | 0.0 | 0.0 | 0.00 | 1.12 | 1.02 | 91 | 1008.0 |
| 20260510021006 | 12 | 194 | 0.0 | 0.0 | 0.00 | 1.12 | 1.02 | 91 | 1007.8 |
| 20260510020505 | 12 | 194 | 0.0 | 0.0 | 0.00 | 1.12 | 1.02 | 91 | 1007.7 |
| 20260510020012 | 12 | 194 | 0.0 | 0.0 | 0.00 | 1.12 | 1.02 | 91 | 1007.7 |
| 20260510015506 | 12 | 175 | 0.0 | 0.0 | 0.00 | 1.12 | 1.02 | 91 | 1007.6 |
| 20260510015006 | 12 | 175 | 0.0 | 0.0 | 0.00 | 1.12 | 1.02 | 91 | 1007.6 |
| 20260510014530 | 12 | 175 | 0.0 | 0.0 | 0.00 | 1.12 | 1.02 | 91 | 1007.5 |
| 20260510014008 | 12 | 175 | 0.0 | 0.0 | 0.00 | 1.12 | 1.02 | 91 | 1007.3 |
| 20260510013510 | 12 | 175 | 0.0 | 0.0 | 0.03 | 1.12 | 1.02 | 90 | 1007.2 |
| 20260510013018 | 12 | 175 | 0.0 | 0.0 | 0.03 | 1.14 | 1.02 | 90 | 1007.1 |
| 20260510012511 | 12 | 175 | 0.0 | 0.0 | 0.03 | 1.14 | 1.02 | 91 | 1007.0 |
| 20260510012014 | 12 | 175 | 0.0 | 0.0 | 0.03 | 1.14 | 1.02 | 91 | 1007.0 |
| 20260510011525 | 12 | 175 | 0.0 | 0.0 | 0.03 | 1.14 | 1.02 | 91 | 1006.9 |
| 20260510011003 | 12 | 175 | 0.0 | 0.0 | 0.03 | 1.14 | 1.02 | 91 | 1006.8 |
| 20260510010504 | 12 | 175 | 0.0 | 0.0 | 0.03 | 1.14 | 1.02 | 90 | 1006.7 |
| 20260510010019 | 12 | 175 | 0.0 | 0.0 | 0.05 | 1.14 | 1.02 | 90 | 1006.7 |
| 20260510005507 | 12 | 175 | 0.0 | 0.0 | 0.10 | 1.14 | 1.02 | 90 | 1006.7 |
| 20260510005006 | 12 | 175 | 0.0 | 0.0 | 0.20 | 1.17 | 1.02 | 90 | 1006.8 |
| 20260510004511 | 12 | 175 | 0.0 | 3.2 | 0.36 | 1.17 | 1.02 | 90 | 1006.7 |
| 20260510004006 | 12 | 163 | 0.0 | 4.8 | 0.36 | 1.17 | 1.02 | 90 | 1006.8 |
| 20260510003506 | 12 | 160 | 1.6 | 4.8 | 0.33 | 1.14 | 0.99 | 90 | 1007.1 |
| 20260510003023 | 12 | 189 | 0.0 | 1.6 | 0.33 | 1.14 | 0.99 | 90 | 1007.2 |
| 20260510002506 | 12 | 167 | 0.0 | 0.0 | 0.36 | 1.14 | 0.99 | 90 | 1007.0 |
| 20260510002010 | 12 | 163 | 0.0 | 3.2 | 0.36 | 1.17 | 0.99 | 90 | 1007.0 |
| 20260510001520 | 12 | 149 | 0.0 | 3.2 | 0.36 | 1.17 | 0.99 | 89 | 1007.1 |
| 20260510001014 | 13 | 148 | 0.0 | 3.2 | 0.36 | 1.17 | 0.99 | 88 | 1007.1 |
| 20260510000511 | 13 | 199 | 0.0 | 4.8 | 0.36 | 1.17 | 0.99 | 87 | 1007.4 |
| 20260510000026 | 13 | 137 | 0.0 | 4.8 | 0.33 | 1.14 | 0.97 | 87 | 1007.6 |
| 20260509235504 | 13 | 302 | 1.6 | 6.4 | 0.28 | 1.12 | 0.91 | 85 | 1007.5 |
| 20260509235004 | 14 | 325 | 1.6 | 6.4 | 0.18 | 1.02 | 0.81 | 83 | 1007.2 |
| 20260509234512 | 15 | 306 | 3.2 | 6.4 | 0.03 | 0.89 | 0.66 | 79 | 1007.2 |
| 20260509234006 | 15 | 311 | 1.6 | 6.4 | 0.03 | 0.89 | 0.66 | 76 | 1006.7 |
| 20260509233506 | 16 | 5 | 1.6 | 8.0 | 0.03 | 0.89 | 0.66 | 73 | 1006.7 |
| 20260509233017 | 17 | 317 | 1.6 | 8.0 | 0.03 | 0.91 | 0.66 | 70 | 1006.5 |
| 20260509232506 | 18 | 333 | 1.6 | 4.8 | 0.00 | 0.91 | 0.64 | 65 | 1005.9 |
| 20260509232008 | 18 | 194 | 1.6 | 6.4 | 0.00 | 0.94 | 0.64 | 60 | 1004.9 |
| 20260509231522 | 19 | 174 | 3.2 | 9.7 | 0.00 | 0.97 | 0.64 | 60 | 1004.7 |
| 20260509231008 | 19 | 174 | 1.6 | 9.7 | 0.00 | 0.97 | 0.64 | 60 | 1004.9 |
| 20260509230508 | 19 | 171 | 6.4 | 9.7 | 0.00 | 0.97 | 0.64 | 60 | 1004.8 |
| 20260509230031 | 18 | 188 | 3.2 | 6.4 | 0.00 | 0.97 | 0.64 | 61 | 1004.7 |
| 20260509225509 | 19 | 187 | 3.2 | 8.0 | 0.00 | 0.97 | 0.64 | 60 | 1004.6 |
| 20260509225009 | 19 | 185 | 3.2 | 11.3 | 0.00 | 0.97 | 0.64 | 58 | 1004.6 |
| 20260509224525 | 19 | 200 | 6.4 | 11.3 | 0.00 | 0.97 | 0.64 | 58 | 1004.6 |
| 20260509224006 | 20 | 207 | 4.8 | 11.3 | 0.00 | 0.97 | 0.64 | 58 | 1004.5 |
| 20260509223505 | 20 | 191 | 4.8 | 12.9 | 0.00 | 0.97 | 0.64 | 57 | 1004.5 |
| 20260509223012 | 20 | 202 | 8.0 | 12.9 | 0.00 | 0.97 | 0.64 | 57 | 1004.6 |
| 20260509222509 | 20 | 196 | 6.4 | 11.3 | 0.00 | 0.97 | 0.64 | 61 | 1004.6 |
| 20260509222008 | 20 | 186 | 6.4 | 11.3 | 0.00 | 0.97 | 0.64 | 59 | 1004.6 |
| 20260509221516 | 20 | 163 | 4.8 | 17.7 | 0.00 | 0.97 | 0.64 | 58 | 1004.6 |
| 20260509221007 | 20 | 188 | 8.0 | 17.7 | 0.00 | 0.97 | 0.64 | 56 | 1004.5 |
| 20260509220508 | 20 | 189 | 4.8 | 12.9 | 0.00 | 0.97 | 0.64 | 56 | 1004.6 |
| 20260509220021 | 20 | 187 | 4.8 | 12.9 | 0.00 | 0.97 | 0.64 | 57 | 1004.6 |
| 20260509215511 | 20 | 180 | 6.4 | 12.9 | 0.00 | 0.97 | 0.64 | 59 | 1004.7 |
| 20260509215012 | 20 | 184 | 6.4 | 11.3 | 0.00 | 0.97 | 0.64 | 60 | 1004.6 |
| 20260509214526 | 20 | 167 | 4.8 | 24.1 | 0.00 | 0.97 | 0.64 | 60 | 1004.6 |
| 20260509214013 | 20 | 182 | 12.9 | 24.1 | 0.00 | 0.97 | 0.64 | 57 | 1004.5 |
| 20260509213510 | 20 | 197 | 8.0 | 16.1 | 0.00 | 0.97 | 0.64 | 59 | 1004.5 |
| 20260509213028 | 20 | 179 | 9.7 | 16.1 | 0.00 | 0.97 | 0.64 | 59 | 1004.5 |
| 20260509212506 | 20 | 184 | 8.0 | 19.3 | 0.00 | 0.97 | 0.64 | 59 | 1004.6 |
| 20260509212009 | 20 | 203 | 6.4 | 19.3 | 0.00 | 0.97 | 0.64 | 59 | 1004.6 |
| 20260509211515 | 19 | 185 | 6.4 | 14.5 | 0.00 | 0.97 | 0.64 | 60 | 1004.6 |
| 20260509211008 | 20 | 186 | 3.2 | 12.9 | 0.00 | 0.97 | 0.64 | 62 | 1004.7 |
| 20260509210507 | 20 | 192 | 6.4 | 12.9 | 0.00 | 0.97 | 0.64 | 59 | 1004.8 |
| 20260509210020 | 19 | 180 | 4.8 | 12.9 | 0.00 | 0.97 | 0.64 | 59 | 1005.0 |
| 20260509205508 | 19 | 202 | 8.0 | 12.9 | 0.00 | 0.97 | 0.64 | 57 | 1005.1 |
| 20260509205009 | 19 | 190 | 6.4 | 12.9 | 0.00 | 0.97 | 0.64 | 59 | 1005.3 |
| 20260509204525 | 19 | 161 | 4.8 | 11.3 | 0.00 | 0.97 | 0.64 | 61 | 1005.2 |
| 20260509204009 | 19 | 167 | 4.8 | 16.1 | 0.00 | 0.97 | 0.64 | 60 | 1005.3 |
| 20260509203511 | 19 | 220 | 8.0 | 16.1 | 0.00 | 0.97 | 0.64 | 59 | 1005.4 |
| 20260509203027 | 19 | 183 | 4.8 | 16.1 | 0.00 | 0.97 | 0.64 | 61 | 1005.3 |
| 20260509202510 | 19 | 186 | 6.4 | 16.1 | 0.00 | 0.97 | 0.64 | 63 | 1005.4 |
| 20260509202009 | 19 | 204 | 8.0 | 14.5 | 0.00 | 0.97 | 0.64 | 60 | 1005.4 |
| 20260509201528 | 19 | 187 | 9.7 | 12.9 | 0.00 | 0.99 | 0.64 | 61 | 1005.5 |
| 20260509201007 | 19 | 171 | 6.4 | 14.5 | 0.00 | 0.99 | 0.64 | 59 | 1005.6 |
| 20260509200506 | 19 | 206 | 8.0 | 12.9 | 0.00 | 0.99 | 0.64 | 63 | 1005.7 |
| 20260509200019 | 19 | 185 | 6.4 | 12.9 | 0.00 | 0.99 | 0.64 | 62 | 1005.9 |
| 20260509195510 | 19 | 157 | 6.4 | 12.9 | 0.00 | 0.99 | 0.64 | 66 | 1005.9 |
| 20260509195006 | 19 | 201 | 4.8 | 12.9 | 0.00 | 0.99 | 0.64 | 60 | 1005.9 |
| 20260509194532 | 19 | 182 | 6.4 | 14.5 | 0.00 | 0.99 | 0.64 | 63 | 1005.9 |
| 20260509194014 | 18 | 179 | 6.4 | 19.3 | 0.00 | 0.99 | 0.64 | 64 | 1005.9 |
| 20260509193512 | 18 | 155 | 6.4 | 19.3 | 0.00 | 0.99 | 0.64 | 65 | 1006.0 |
| 20260509193025 | 18 | 198 | 4.8 | 14.5 | 0.00 | 1.02 | 0.64 | 66 | 1006.0 |
| 20260509192512 | 18 | 189 | 3.2 | 11.3 | 0.00 | 1.02 | 0.64 | 65 | 1006.1 |
| 20260509192010 | 18 | 150 | 6.4 | 9.7 | 0.00 | 1.02 | 0.64 | 67 | 1006.1 |
| 20260509191528 | 18 | 170 | 6.4 | 9.7 | 0.00 | 1.04 | 0.64 | 68 | 1006.3 |
| 20260509190509 | 18 | 180 | 4.8 | 14.5 | 0.00 | 1.04 | 0.64 | 65 | 1006.4 |
| 20260509190027 | 18 | 192 | 6.4 | 14.5 | 0.00 | 1.04 | 0.64 | 64 | 1006.5 |
| 20260509185509 | 18 | 169 | 8.0 | 14.5 | 0.00 | 1.04 | 0.64 | 65 | 1006.5 |
| 20260509185007 | 18 | 179 | 6.4 | 14.5 | 0.00 | 1.04 | 0.64 | 66 | 1006.5 |
| 20260509184519 | 18 | 204 | 4.8 | 12.9 | 0.00 | 1.04 | 0.64 | 62 | 1006.6 |
| 20260509184007 | 18 | 174 | 4.8 | 11.3 | 0.00 | 1.04 | 0.64 | 62 | 1006.5 |
| 20260509183508 | 18 | 175 | 4.8 | 9.7 | 0.00 | 1.04 | 0.64 | 64 | 1006.4 |
| 20260509183021 | 18 | 190 | 4.8 | 9.7 | 0.00 | 1.04 | 0.64 | 62 | 1006.5 |
| 20260509182511 | 18 | 209 | 3.2 | 9.7 | 0.00 | 1.04 | 0.64 | 65 | 1006.5 |
| 20260509182009 | 18 | 172 | 4.8 | 9.7 | 0.00 | 1.04 | 0.64 | 62 | 1006.5 |
| 20260509181525 | 18 | 192 | 6.4 | 11.3 | 0.00 | 1.04 | 0.64 | 63 | 1006.6 |
| 20260509180510 | 18 | 180 | 4.8 | 12.9 | 0.00 | 1.07 | 0.64 | 67 | 1006.6 |
| 20260509180027 | 18 | 173 | 3.2 | 12.9 | 0.00 | 1.07 | 0.64 | 66 | 1006.6 |
| 20260509175512 | 18 | 178 | 8.0 | 12.9 | 0.00 | 1.09 | 0.64 | 67 | 1006.5 |
| 20260509175010 | 18 | 169 | 4.8 | 11.3 | 0.00 | 1.09 | 0.64 | 67 | 1006.7 |
| 20260509174527 | 18 | 247 | 4.8 | 11.3 | 0.00 | 1.09 | 0.64 | 65 | 1006.8 |
| 20260509174008 | 18 | 182 | 4.8 | 9.7 | 0.00 | 1.09 | 0.64 | 67 | 1006.9 |
| 20260509173508 | 17 | 182 | 3.2 | 9.7 | 0.00 | 1.09 | 0.64 | 69 | 1006.9 |
| 20260509173029 | 17 | 177 | 4.8 | 9.7 | 0.00 | 1.09 | 0.64 | 67 | 1006.9 |
| 20260509172511 | 17 | 195 | 3.2 | 12.9 | 0.00 | 1.09 | 0.64 | 70 | 1006.8 |
| 20260509172011 | 17 | 173 | 3.2 | 12.9 | 0.00 | 1.09 | 0.64 | 70 | 1006.7 |
| 20260509171531 | 17 | 168 | 4.8 | 11.3 | 0.00 | 1.09 | 0.64 | 69 | 1006.8 |
| 20260509171007 | 17 | 172 | 4.8 | 9.7 | 0.00 | 1.09 | 0.64 | 72 | 1006.7 |
| 20260509170505 | 17 | 182 | 4.8 | 11.3 | 0.00 | 1.09 | 0.64 | 72 | 1006.8 |
| 20260509170015 | 17 | 167 | 6.4 | 11.3 | 0.00 | 1.09 | 0.64 | 69 | 1006.8 |
| 20260509165507 | 17 | 184 | 3.2 | 9.7 | 0.00 | 1.09 | 0.64 | 70 | 1006.9 |
| 20260509165010 | 17 | 172 | 4.8 | 11.3 | 0.00 | 1.09 | 0.64 | 70 | 1006.9 |
| 20260509164517 | 17 | 180 | 4.8 | 11.3 | 0.00 | 1.09 | 0.64 | 69 | 1007.0 |
| 20260509164008 | 16 | 174 | 4.8 | 9.7 | 0.00 | 1.09 | 0.64 | 73 | 1007.1 |
| 20260509163508 | 17 | 198 | 3.2 | 8.0 | 0.00 | 1.09 | 0.64 | 67 | 1007.1 |
| 20260509163019 | 17 | 196 | 3.2 | 8.0 | 0.00 | 1.09 | 0.64 | 73 | 1007.1 |
| 20260509162509 | 17 | 242 | 0.0 | 4.8 | 0.00 | 1.09 | 0.64 | 72 | 1007.1 |
| 20260509162009 | 16 | 153 | 1.6 | 6.4 | 0.00 | 1.09 | 0.64 | 74 | 1007.2 |
| 20260509161519 | 16 | 204 | 3.2 | 8.0 | 0.00 | 1.09 | 0.64 | 72 | 1007.1 |
| 20260509161004 | 16 | 157 | 4.8 | 8.0 | 0.00 | 1.09 | 0.64 | 75 | 1007.1 |
| 20260509160504 | 16 | 291 | 1.6 | 8.0 | 0.00 | 1.09 | 0.64 | 76 | 1007.2 |
| 20260509160008 | 16 | 186 | 1.6 | 6.4 | 0.00 | 1.09 | 0.64 | 77 | 1007.1 |
| 20260509155503 | 16 | 175 | 1.6 | 6.4 | 0.00 | 1.09 | 0.64 | 80 | 1007.2 |
| 20260509155003 | 15 | 194 | 3.2 | 6.4 | 0.00 | 1.09 | 0.64 | 78 | 1007.1 |
| 20260509154516 | 15 | 219 | 1.6 | 8.0 | 0.00 | 1.09 | 0.64 | 80 | 1007.2 |
| 20260509154011 | 15 | 180 | 3.2 | 6.4 | 0.00 | 1.09 | 0.64 | 79 | 1007.1 |